Regional Weather Roundup
Issued by NWS

Home | Current Version | Previous Version | Text Only | Print | Product List | Glossary On
Versions: 1 2 3 4 5 6 7 8 9 10 11 12 13 14 15 16 17 18 19 20 21 22 23 24 25 26 27 28 29 30 31 32 33 34 35 36 37 38 39 40 41 42 43 44 45 46 47 48 49 50
000
ASUS43 KLSX 110857
RWRMO

WEATHER SUMMARY FOR MISSOURI
NATIONAL WEATHER SERVICE SPRINGFIELD MO
300 AM CST SUN DEC 11 2016

NOTE: "FAIR" INDICATES FEW OR NO CLOUDS BELOW 12,000 FEET WITH NO
       SIGNIFICANT WEATHER AND/OR OBSTRUCTIONS TO VISIBILITY.
       CURRENT SKY AND/OR WEATHER CONDITIONS ARE NOT AVAILABLE FOR
       CHILLICOTHE AND FARMINGTON.

MOZ001>031-035>038-043-044-053-054-111000-
...NORTHERN AND WESTERN MISSOURI...

CITY           SKY/WX    TMP DP  RH WIND       PRES   REMARKS
KANSAS CTY INT CLOUDY    40  24  53 S15       29.83F
LEE`S SUMMIT   CLOUDY    39  23  52 S13       29.84F
ST JOSEPH      CLOUDY    38  25  59 SE7       29.84F
CHILLICOTHE      N/A     37  20  50 S10       29.91F WCI  30

$$
MOZ066>068-077>081-088>096-101>105-111000-
...SOUTHWEST MISSOURI...

CITY           SKY/WX    TMP DP  RH WIND       PRES   REMARKS
SPRINGFIELD    CLOUDY    40  24  53 S17       29.95F
JOPLIN         CLOUDY    46  28  49 MISG      29.91F

$$
MOZ032>034-039>042-045>050-055>058-069>072-111000-
...CENTRAL MISSOURI...

CITY           SKY/WX    TMP DP  RH WIND       PRES   REMARKS
COLUMBIA       NOT AVBL
JEFFERSON CITY CLOUDY    38  22  52 E6        30.01F
ROLLA          CLOUDY    38  21  50 S18       30.00F WCI  28
SEDALIA        CLOUDY    41  23  48 S17       29.93F
WARRENSBURG    CLOUDY    37  23  56 SE13      29.89F WCI  29

$$
MOZ051-052-059>065-111000-
...EAST CENTRAL MISSOURI...

CITY           SKY/WX    TMP DP  RH WIND       PRES   REMARKS
ST LOUIS INTL  CLOUDY    39  17  41 SE8       30.08F

$$
MOZ072>076-082>087-097>100-106>115-111000-
...SOUTH CENTRAL AND SOUTHEAST MISSOURI...

CITY           SKY/WX    TMP DP  RH WIND       PRES   REMARKS
CAPE GIRARDEAU CLOUDY    38  21  50 S13       30.20F WCI  30
POPLAR BLUFF   CLOUDY    39  23  52 S7        30.19F
WEST PLAINS    CLOUDY    38  21  50 S13G18    30.09F WCI  30

$$


USA.gov is the U.S. government's official web portal to all federal, state and local government web resources and services.